Location: Eckley
(40.9930°N, 75.8630°W)
Time: 01:49:34
(UTC-05:00)

Daily predictions for brighter satellites

Satellite Brightness Start Highest point End
(mag) Time Altitude Azimuth Time Altitude Azimuth Time Altitude Azimuth
CZ-3C R/B 4.4 03:31:24 20° S 03:34:33 24° SE 03:58:09 10° ESE
Cosmos 2278 Rocket 4.1 03:45:10 23° SE 03:45:10 23° SE 03:47:21 10° SE
SL-16 R/B 4.2 03:45:43 13° SSE 03:49:24 24° ESE 03:53:51 10° NE
Cosmos 2237 Rocket 3.5 04:24:05 29° NNE 04:24:05 29° NNE 04:26:43 10° NNE
Gbstr 26 Del rocket 4.2 04:29:45 43° E 04:29:45 43° E 04:32:47 10° ESE
Cosmos 1680 Rocket 4.4 04:30:49 10° S 04:35:49 48° ESE 04:40:49 10° NNE
USA 215 3.1 04:29:22 10° NE 04:35:57 86° SE 04:37:30 56° SW
COSMO-SKYMED 1 4.3 04:34:39 10° SE 04:38:26 30° ENE 04:40:58 17° NNE
Lacrosse 5 rocket 3.9 04:47:25 13° NNE 04:47:25 13° NNE 04:48:02 10° NNE
NOAA 6 4.5 04:47:33 10° NNE 04:52:38 60° ESE 04:57:40 10° S
Cosmos 2112 Rocket 4.4 04:49:08 10° S 04:54:16 61° ESE 04:59:24 10° NNE
CZ-3 R/B 4.2 04:50:18 10° SSW 04:57:27 16° S 05:01:23 10° SE
CENTAUR R/B 2.4 04:57:18 53° WSW 04:58:39 66° NW 05:05:31 10° NNE
Meteor 1-14 Rocket 4.1 04:53:31 10° SSW 04:59:13 80° W 05:04:50 10° N
Cosmos 2184 Rocket 4.4 04:53:11 10° S 04:59:13 61° E 05:05:18 10° NNE
Cosmos 2219 Rocket 4.0 05:04:55 16° N 05:04:55 16° N 05:06:24 10° N
ADEOS II 4.2 04:57:39 10° N 04:58:20 14° N 04:58:20 14° N
Cosmos 2333 Rocket 3.6 05:08:13 22° NNW 05:08:13 22° NNW 05:10:42 10° N
Cosmos 2297 3.6 05:06:49 45° NW 05:08:32 70° WSW 05:14:08 10° SSE
Okean 1 3.8 05:12:44 16° N 05:15:50 60° E 05:19:48 10° SSE
Cosmos 2181 Rocket 4.2 05:12:39 21° NNW 05:16:47 50° W 05:22:52 10° SSW
Cosmos 1238 Rocket 3.2 05:20:28 23° NNW 05:23:22 72° W 05:28:51 10° S
Cosmos 2151 Rocket 3.5 05:19:58 10° SSW 05:24:29 74° W 05:29:00 10° N
Cosmos 1709 Rocket 4.4 05:19:26 10° SW 05:24:58 35° WNW 05:30:35 10° N
Cosmos 2278 Rocket 3.5 05:27:06 21° SW 05:27:06 21° SW 05:29:58 10° SSW
Meteor 1-25 Rocket 4.2 05:20:23 10° SSW 05:26:12 72° W 05:32:02 10° N
SKYMED 2 3.4 05:22:02 10° S 05:26:21 81° WSW 05:29:36 18° NNW
Timation 1 Rocket 4.5 05:26:09 29° NW 05:29:01 53° WSW 05:34:50 10° S
SL-08 ROCKET BODY 4.3 05:23:59 10° SSW 05:29:58 72° W 05:35:54 10° N
DELTA 2 R/B (1) 4.3 05:30:38 28° WSW 05:32:52 40° SSW 05:38:00 10° SE
SL-16 R/B 2.4 05:27:57 11° SW 05:33:10 48° WNW 05:38:39 10° NNE
Tiangong 2 0.9 05:32:51 70° W 05:33:10 87° NNW 05:36:20 10° ENE
Cosmos 2056 Rocket 4.0 05:31:55 10° NNW 05:37:03 59° ENE 05:42:05 10° SSE
Cosmos 1346 Rocket 2.6 05:34:42 14° N 05:38:03 90° WSW 05:41:58 10° S
CZ-4 R/B 3.5 05:35:14 10° NE 05:38:43 28° E 05:42:08 10° SSE
Cosmos 1610 Rocket 4.5 05:33:12 10° S 05:39:21 90° E 05:45:37 10° N
Cosmos 1812 3.0 05:39:51 34° NW 05:40:55 43° W 05:44:35 10° SSW
Lacrosse 5 3.4 05:40:36 10° SSW 05:45:17 38° SE 05:49:59 10° ENE
USA 32 4.2 05:41:14 10° NNW 05:46:15 48° W 05:51:15 10° SSW
CSL-04 DEB 4.3 05:42:16 10° N 05:46:18 72° WNW 05:50:23 10° SSW
DMSP B5D1-3 4.5 05:43:05 10° S 05:48:11 64° WSW 05:53:20 10° NNW
Cosmos 1943 Rocket 4.4 05:44:38 10° N 05:48:31 19° NE 05:52:23 10° E
PSLV R/B 3.2 05:47:17 35° W 05:48:35 90° NNW 05:51:58 10° E
Iridium 2 4.2 05:45:31 10° SSW 05:49:03 36° W 05:52:35 10° NNW
Cosmos 1624 Rocket 4.0 05:46:05 10° NNW 05:51:23 87° ENE 05:56:42 10° SSE
Cosmos 1536 Rocket 3.8 05:47:49 12° NNW 05:51:47 45° W 05:55:59 10° SSW
Cosmos 1371 Rocket 4.0 05:49:50 10° NNW 05:55:08 71° WSW 06:00:22 10° S
Ariane Rocket 2.9 05:52:32 10° N 05:57:33 62° WNW 06:02:30 10° SSW
YAOGAN 1 4.4 05:54:51 10° NNE 05:58:51 35° E 06:02:49 10° SSE
Cosmos 1536 3.5 05:55:45 10° S 05:59:38 58° E 06:03:35 10° NNE
Cosmos 192 4.4 05:56:08 10° SSW 06:01:02 82° ESE 06:05:57 10° NNE
Helios 1B rocket 3.6 05:59:51 10° SE 06:03:47 44° ENE 06:07:44 10° N
Cosmos 2237 Rocket 3.8 06:05:58 13° NW 06:06:04 13° NW 06:08:47 10° NNW
Meteor 1-28 Rocket 3.5 06:05:33 10° S 06:09:10 44° W 06:12:50 10° NNW
Okean 1 Rocket 3.0 06:05:41 10° SSW 06:10:04 64° W 06:14:27 10° N
Meteor 2-4 Rocket 4.0 06:05:30 10° N 06:10:58 72° E 06:16:34 10° SSE
Cosmos 44 Rocket 3.8 06:06:06 10° SSW 06:11:15 71° ESE 06:16:23 10° NE
Nadezhda 3 Rocket 4.0 06:05:18 10° N 06:11:38 73° W 06:17:59 10° S
Cosmos 1025 Rocket 3.4 06:09:09 10° N 06:13:32 68° E 06:17:53 10° SSE
Okean 1-7 Rocket 3.5 06:09:57 10° NNW 06:14:21 74° W 06:18:42 10° S
COSMO-SKYMED 1 3.7 06:11:06 10° SSW 06:14:35 23° W 06:18:06 10° NW
Gbstr 26 Del rocket 4.4 06:12:20 14° W 06:14:58 23° SW 06:18:12 10° S
USA 215 3.9 06:12:43 10° NE 06:18:31 35° NNW 06:24:18 10° W
USA 129 2.8 06:19:34 10° SSW 06:21:11 23° W 06:22:09 16° NW
GPS 2-05 Rocket1 4.3 06:19:23 10° WSW 06:22:38 33° S 06:25:57 10° ESE
Cosmos 921 Rocket 4.2 06:19:06 10° NW 06:22:47 25° W 06:26:28 10° SSW
Cosmos 1633 2.9 06:19:20 10° SSW 06:22:50 43° W 06:26:20 10° N
Lacrosse 5 rocket 3.7 06:24:51 10° NNW 06:25:12 10° N 06:25:33 10° N
CSL-04 Debris 4.3 06:19:57 10° N 06:25:16 54° WNW 06:30:35 10° SSW
Cosmos 2341 Rocket 4.0 06:19:44 10° SSW 06:26:02 71° W 06:32:18 10° N
Cosmos 1452 Rocket 3.9 06:21:29 10° NNW 06:26:46 70° ENE 06:32:01 10° SSE
CSL-04 Rocket 4.0 06:21:49 10° N 06:27:05 45° WNW 06:32:18 10° SW
Cosmos 1603 4.0 06:25:04 10° SW 06:30:29 44° WNW 06:35:55 10° NNE
Cosmos 962 Rocket 4.5 06:25:27 10° SSW 06:31:32 64° W 06:37:44 10° N
Cosmos 1340 3.7 06:28:17 10° N 06:31:59 49° ENE 06:35:39 10° SSE
Cosmos 2369 Rocket 2.3 06:29:28 10° NNW 06:35:14 89° ENE 06:40:56 10° SSE
Cosmos 1892 Rocket 3.9 06:34:08 10° N 06:38:35 72° E 06:43:03 10° SSE
